Location: Hilton Head Island
(32.2163°N, 80.7526°W)
Time: 14:26:05
(UTC-04:00)

Vanguard 1 - Pass Details

Date: 18 February 2026
Orbit: 653 x 3818 km, 34.2° (Epoch: 9 March)

Event Time Altitude Azimuth Distance (km) Brightness Sun altitude
Rises 16:57:15 0° 265° (W) 4,841 15.1 14.1°
Reaches altitude 10° 16:59:49 10° 267° (W) 4,162 15.0 13.6°
Maximum altitude 17:12:07 84° 356° (N) 2,740 12.5 11.2°
Drops below altitude 10° 17:33:55 10° 86° (E) 6,809 13.8 6.9°
Sets 17:39:36 0° 88° (E) 7,945 14.0 5.7°
